Other Public Products
Issued by NWS Charleston, SC

Current Version | Previous Version | Graphics & Text | Print | Product List | Glossary On
Versions: 1 2 3 4 5 6 7 8 9 10 11 12 13 14 15 16 17 18 19 20 21 22 23 24 25 26 27 28 29 30 31 32 33 34 35 36 37 38 39 40 41 42 43 44 45 46 47 48 49 50
000
FPUS82 KCHS 170727
OPUCHS

TEST...KCHS/KSAV Gateway Observations...TEST
National Weather Service Charleston SC
200 AM EST SAT FEB 17 2018

NOTE: "fair" indicates few or no clouds below 12,000 feet with no
significant weather and/or obstructions to visibility.

SCZ050-WAZ558-NCZ071-TXZ119-213-PAZ071-DCZ001-FLZ074-172-MI076-
NYZ176-178-MAZ016-IL014-TNZ027-NJZ106-GAZ044-MD014-170800-

...Gateway Observations for Charleston International...

CITY           SKY/WX    TMP DP  RH WIND       PRES   REMARKS
Chas Airport   FAIR      63  60  90 CALM      30.10S
Seattle        CLOUDY    46  43  89 SW13      30.12F
Charlotte      MOCLDY    57  41  55 NE10      30.18R
Dallas DFW     CLOUDY    47  35  63 N7        30.08F
Dallas Love    CLOUDY    47  37  68 NW7       30.10F
Philladelphia  FAIR      36  22  56 N14       30.26R WCI  27
Wash National  FAIR      37  26  64 N8        30.30R WCI  31
Baltimore      MOCLDY    34  24  67 W3        30.28R
Miami          FAIR      70  65  84 CALM      30.19F
Detroit        FAIR      21  15  78 S3        30.26S
Newark         FAIR      32  13  45 NW15      30.25R WCI  22
Laguardia      FAIR      34  15  46 NW13      30.25R WCI  25
J F K          FAIR      33  15  47 NW14      30.26R WCI  23
Boston Logan   FAIR      31  15  52 NW14G21   30.18R WCI  21
Ft. Lauderdale FAIR      71  67  87 S5        30.17F
Chicago O`Hare FAIR      19   9  65 SW7       30.23F WCI  10
Chicago Midway FAIR      19  11  70 W6        30.25F WCI  11
Houston Bush   CLOUDY    64  59  83 NE5       30.08F
Houston Hobby  CLOUDY    68  68 100 SW3       30.08R FOG
Nashville      MOCLDY    42  36  79 NE6       30.23R
Atlanta        MOCLDY    53  49  86 NW9       30.15S

$$

GAZ044-118-TXZ119-213-NCZ071-DCZ001-MDZ014-506-PAZ021-071-NJZ106-
NYZ176-178-MAZ106-OHZ011-021-055-MIZ076-KYZ091-ILZ014-INZ047-
MNZ060-ONZ431-170800-

...Gateway Observations for Savannah International...

CITY           SKY/WX    TMP DP  RH WIND       PRES   REMARKS
Savannah Arpt  FAIR      62  58  86 SW6       30.12R
Atlanta        MOCLDY    53  49  86 NW9       30.15S
Charlotte      MOCLDY    57  41  55 NE10      30.18R
Dallas DFW     CLOUDY    47  35  63 N7        30.08F
Houston Bush   CLOUDY    64  59  83 NE5       30.08F
Wash National  FAIR      37  26  64 N8        30.30R WCI  31
Wash Dulles    FAIR      34  24  67 NW10      30.28R WCI  26
Baltimore      MOCLDY    34  24  67 W3        30.28R
Philadelphia   FAIR      36  22  56 N14       30.26R WCI  27
Newark         FAIR      32  13  45 NW15      30.25R WCI  22
Laguardia      FAIR      34  15  46 NW13      30.25R WCI  25
J F K          FAIR      33  15  47 NW14      30.26R WCI  23
Boston         FAIR      31  15  52 NW14G21   30.18R WCI  21
Pittsburg      CLOUDY    29  19  66 E6        30.27R WCI  23
Akron          CLOUDY    30  17  58 W7        30.26S WCI  23
Cleveland      CLOUDY    30  19  63 CALM      30.30R
Cincinnati     CLOUDY    33  27  78 CALM      30.26S
Columbus       CLOUDY    31  28  87 CALM      30.27F
Detroit        FAIR      21  15  78 S3        30.26S
Chicago O`Hare FAIR      19   9  65 SW7       30.23F WCI  10
Minneapolis    CLOUDY    22  12  65 SW12G21   29.96F WCI  10
Indianapolis   FAIR      27  22  81 CALM      30.26S
Toronto Canada CLEAR     19  12  73 SW5       30.25S WCI  13

$$




USA.gov is the U.S. government's official web portal to all federal, state and local government web resources and services.